Location: San Pelegr�n
(42.1868°N, 0.0079°E)
Time: 20:56:16
(UTC+00:00)

Cosmos 2263 Rocket - Pass Details

Date: 24 January 2020
Orbit: 823 x 849 km, 71.0° (Epoch: 20 February)

Event Time Altitude Azimuth Distance (km) Brightness Sun altitude
Rises 19:30:36 0° 194° (SSW) 3,341 5.5 -27.1°
Reaches altitude 10° 19:33:01 10° 192° (SSW) 2,414 4.7 -27.6°
Enters shadow 19:36:22 38° 181° (S) 1,245 3.0 -28.2°
